Simultaneous Nadir Overpasses (SNOs) Predictions

Prediction of SNOs between GOES-16 and AQUA Satellite Orbit:

Table of predicted SNOs for the next 14.0 days since TLE Epoch: 6/20/2025
Index Date Time (GOES-16) GOES-16 Lat,Lon AQUA Lat,Lon Distance(km) Time Diff (sec)
1 06/21/2025 09:46:45 0.03,-104.73 0.17,-105.37 72.24 80
2 06/23/2025 09:23:46 0.02,-104.73 -0.90,-100.39 493.19 80
3 06/23/2025 21:45:43 -0.02,-104.73 -0.11,-105.05 37.24 80
4 06/26/2025 09:44:33 0.00,-104.73 0.01,-104.71 2.18 80
5 06/28/2025 21:43:31 0.00,-104.73 0.06,-104.39 38.00 80
6 06/29/2025 10:02:40 -0.00,-104.73 0.94,-109.02 488.21 80
7 07/01/2025 09:39:40 -0.00,-104.74 -0.15,-104.04 79.19 80
8 07/01/2025 21:58:57 0.00,-104.74 -0.88,-108.70 450.87 80
9 07/03/2025 21:41:17 0.00,-104.75 0.23,-103.72 116.99 80
10 07/04/2025 10:00:26 -0.00,-104.75 0.76,-108.35 408.99 80
